• In Deutschland
  • Länderverzeichnis
  • Für 7 Tage
  • Wassertemperatur
  • Satellitenkarten
  • Wetterkarte
  • Widgets
  • user-avatar
    Anmelden

    Stündliche Wetter Innsbruck

    Heute, 16 November, Freitag

    Zeit Temperatur Niederschläge Wind Luftdruck Luftfeuchtigkeit
    00:00 -1°C° 0 mm 1 m/S 598 mmHg 47%
    01:00 -1°C° 0 mm 1 m/S 598 mmHg 44%
    02:00 -1°C° 0 mm 1 m/S 598 mmHg 44%
    03:00 -1°C° 0 mm 1 m/S 598 mmHg 44%
    04:00 -2°C° 0 mm 1 m/S 598 mmHg 45%
    05:00 -2°C° 0 mm 1 m/S 598 mmHg 45%
    06:00 -2°C° 0 mm 1 m/S 598 mmHg 46%
    07:00 -2°C° 0 mm 1 m/S 598 mmHg 47%
    08:00 0°C° 0 mm 1 m/S 599 mmHg 44%
    09:00 +2°C° 0 mm 1 m/S 600 mmHg 42%
    10:00 +3°C° 0 mm 1 m/S 601 mmHg 39%
    11:00 +4°C° 0 mm 1 m/S 601 mmHg 39%
    12:00 +4°C° 0 mm 1 m/S 601 mmHg 39%
    13:00 +4°C° 0 mm 2 m/S 600 mmHg 40%
    14:00 +3°C° 0 mm 1 m/S 600 mmHg 49%
    15:00 +2°C° 0 mm 1 m/S 599 mmHg 58%
    16:00 0°C° 0 mm 1 m/S 598 mmHg 67%
    17:00 -1°C° 0 mm 1 m/S 598 mmHg 72%
    18:00 -2°C° 0 mm 1 m/S 597 mmHg 78%
    19:00 -3°C° 0 mm 1 m/S 597 mmHg 84%
    20:00 -3°C° 0 mm 1 m/S 597 mmHg 84%
    21:00 -5°C° 0 mm 2 m/S 597 mmHg 84%
    22:00 -5°C° 0 mm 2 m/S 597 mmHg 85%
    23:00 -6°C° 0 mm 2 m/S 597 mmHg 85%

    Morgen, 17 November, Samstag

    Zeit Temperatur Niederschläge Wind Luftdruck Luftfeuchtigkeit
    00:00 -6°C° 0 mm 2 m/S 597 mmHg 86%
    01:00 -6°C° 0 mm 2 m/S 597 mmHg 87%
    02:00 -6°C° 0 mm 2 m/S 597 mmHg 87%
    03:00 -6°C° 0 mm 2 m/S 597 mmHg 87%
    04:00 -6°C° 0 mm 2 m/S 596 mmHg 87%
    05:00 -6°C° 0 mm 2 m/S 596 mmHg 86%
    06:00 -7°C° 0 mm 2 m/S 596 mmHg 85%
    07:00 -7°C° 0 mm 2 m/S 596 mmHg 83%
    08:00 -5°C° 0 mm 2 m/S 597 mmHg 75%
    09:00 -4°C° 0 mm 2 m/S 597 mmHg 66%
    10:00 -3°C° 0 mm 2 m/S 598 mmHg 57%
    11:00 -2°C° 0 mm 2 m/S 598 mmHg 51%
    12:00 -1°C° 0 mm 2 m/S 598 mmHg 46%
    13:00 +2°C° 0 mm 1 m/S 598 mmHg 40%
    14:00 +1°C° 0 mm 1 m/S 598 mmHg 46%
    15:00 0°C° 0 mm 1 m/S 597 mmHg 51%
    16:00 -1°C° 0 mm 1 m/S 596 mmHg 57%
    17:00 -2°C° 0 mm 1 m/S 596 mmHg 62%
    18:00 -4°C° 0 mm 1 m/S 595 mmHg 68%
    19:00 -6°C° 0 mm 1 m/S 595 mmHg 74%
    20:00 -6°C° 0 mm 1 m/S 595 mmHg 73%
    21:00 -6°C° 0 mm 1 m/S 595 mmHg 72%
    22:00 -8°C° 0 mm 2 m/S 595 mmHg 72%
    23:00 -8°C° 0 mm 2 m/S 595 mmHg 71%

    übermorgen, 18 November, Sonntag

    Zeit Temperatur Niederschläge Wind Luftdruck Luftfeuchtigkeit
    00:00 -8°C° 0 mm 2 m/S 595 mmHg 70%
    01:00 -8°C° 0 mm 2 m/S 595 mmHg 70%
    02:00 -8°C° 0 mm 2 m/S 595 mmHg 69%
    03:00 -8°C° 0 mm 2 m/S 595 mmHg 69%
    04:00 -8°C° 0 mm 2 m/S 595 mmHg 69%
    05:00 -8°C° 0 mm 2 m/S 595 mmHg 68%
    06:00 -8°C° 0 mm 2 m/S 595 mmHg 67%
    07:00 -9°C° 0 mm 2 m/S 595 mmHg 66%
    08:00 -6°C° 0 mm 1 m/S 595 mmHg 59%
    09:00 -3°C° 0 mm 1 m/S 596 mmHg 52%
    10:00 -1°C° 0 mm 1 m/S 596 mmHg 45%
    11:00 -1°C° 0 mm 1 m/S 596 mmHg 42%
    12:00 0°C° 0 mm 1 m/S 596 mmHg 40%
    13:00 +1°C° 0 mm 1 m/S 596 mmHg 37%
    14:00 0°C° 0 mm 1 m/S 595 mmHg 43%
    15:00 -1°C° 0 mm 1 m/S 595 mmHg 50%
    16:00 -2°C° 0 mm 1 m/S 594 mmHg 56%
    17:00 -4°C° 0 mm 1 m/S 593 mmHg 62%
    18:00 -6°C° 0 mm 1 m/S 593 mmHg 68%
    19:00 -7°C° 0 mm 1 m/S 592 mmHg 74%
    20:00 -7°C° 0 mm 1 m/S 592 mmHg 76%
    21:00 -7°C° 0 mm 1 m/S 592 mmHg 78%
    22:00 -8°C° 0 mm 1 m/S 592 mmHg 80%
    23:00 -8°C° 0 mm 1 m/S 591 mmHg 80%

    19 November, Montag

    Zeit Temperatur Niederschläge Wind Luftdruck Luftfeuchtigkeit
    00:00 -8°C° 0 mm 1 m/S 591 mmHg 79%
    01:00 -8°C° 0 mm 1 m/S 591 mmHg 79%
    02:00 -8°C° 0 mm 1 m/S 590 mmHg 81%
    03:00 -8°C° 0 mm 1 m/S 590 mmHg 82%
    04:00 -9°C° 0 mm 1 m/S 590 mmHg 84%
    05:00 -9°C° 0 mm 1 m/S 590 mmHg 85%
    06:00 -9°C° 0 mm 1 m/S 589 mmHg 86%
    07:00 -9°C° 0 mm 1 m/S 589 mmHg 87%
    08:00 -8°C° 0 mm 1 m/S 589 mmHg 82%
    09:00 -7°C° 0 mm 1 m/S 590 mmHg 77%
    10:00 -7°C° 0 mm 2 m/S 590 mmHg 73%
    11:00 -7°C° 0 mm 2 m/S 590 mmHg 69%
    12:00 -6°C° 0 mm 2 m/S 589 mmHg 66%
    13:00 -6°C° 0 mm 2 m/S 589 mmHg 63%
    14:00 -7°C° 0.1 mm 2 m/S 589 mmHg 67%
    15:00 -7°C° 0.1 mm 2 m/S 588 mmHg 71%
    16:00 -8°C° 0.1 mm 2 m/S 588 mmHg 75%
    17:00 -8°C° 0.1 mm 2 m/S 587 mmHg 79%
    18:00 -9°C° 0.1 mm 2 m/S 587 mmHg 83%
    19:00 -10°C° 0.1 mm 2 m/S 587 mmHg 87%
    20:00 -9°C° 0.1 mm 1 m/S 587 mmHg 87%
    21:00 -9°C° 0.1 mm 1 m/S 587 mmHg 87%
    22:00 -9°C° 0.1 mm 1 m/S 587 mmHg 87%
    23:00 -9°C° 0.1 mm 1 m/S 586 mmHg 87%

    20 November, Dienstag

    Zeit Temperatur Niederschläge Wind Luftdruck Luftfeuchtigkeit
    00:00 -10°C° 0.1 mm 1 m/S 586 mmHg 87%
    01:00 -10°C° 0.1 mm 1 m/S 586 mmHg 87%
    02:00 -10°C° 0.1 mm 1 m/S 586 mmHg 87%
    03:00 -10°C° 0.1 mm 1 m/S 585 mmHg 87%
    04:00 -10°C° 0.1 mm 1 m/S 585 mmHg 87%
    05:00 -10°C° 0.1 mm 1 m/S 585 mmHg 87%
    06:00 -10°C° 0.1 mm 1 m/S 584 mmHg 87%
    07:00 -11°C° 0.1 mm 1 m/S 584 mmHg 87%
    08:00 -10°C° 0.1 mm 1 m/S 584 mmHg 83%
    09:00 -9°C° 0.1 mm 1 m/S 585 mmHg 78%
    10:00 -9°C° 0.1 mm 1 m/S 585 mmHg 74%
    11:00 -9°C° 0.1 mm 2 m/S 584 mmHg 71%
    12:00 -9°C° 0.1 mm 2 m/S 584 mmHg 69%
    13:00 -8°C° 0.1 mm 2 m/S 584 mmHg 67%
    14:00 -9°C° 0.2 mm 2 m/S 584 mmHg 71%
    15:00 -9°C° 0.2 mm 2 m/S 583 mmHg 75%
    16:00 -10°C° 0.2 mm 2 m/S 583 mmHg 79%
    17:00 -10°C° 0.2 mm 2 m/S 583 mmHg 82%
    18:00 -12°C° 0.2 mm 2 m/S 583 mmHg 84%
    19:00 -12°C° 0.2 mm 2 m/S 583 mmHg 87%
    20:00 -12°C° 0.2 mm 2 m/S 583 mmHg 87%
    21:00 -12°C° 0.2 mm 2 m/S 583 mmHg 87%
    22:00 -13°C° 0.2 mm 2 m/S 583 mmHg 87%
    23:00 -13°C° 0.2 mm 2 m/S 583 mmHg 87%

    21 November, Mittwoch

    Zeit Temperatur Niederschläge Wind Luftdruck Luftfeuchtigkeit
    00:00 -13°C° 0.2 mm 2 m/S 583 mmHg 87%
    01:00 -13°C° 0.2 mm 2 m/S 583 mmHg 88%
    02:00 -13°C° 0.3 mm 2 m/S 583 mmHg 88%
    03:00 -13°C° 0.3 mm 2 m/S 583 mmHg 88%
    04:00 -13°C° 0.3 mm 2 m/S 583 mmHg 88%
    05:00 -13°C° 0.3 mm 2 m/S 583 mmHg 88%
    06:00 -13°C° 0.3 mm 2 m/S 583 mmHg 88%
    07:00 -13°C° 0.3 mm 2 m/S 583 mmHg 89%
    08:00 -13°C° 0.3 mm 2 m/S 584 mmHg 86%
    09:00 -13°C° 0.3 mm 2 m/S 584 mmHg 84%
    10:00 -12°C° 0.3 mm 2 m/S 584 mmHg 82%
    11:00 -12°C° 0.2 mm 2 m/S 585 mmHg 80%
    12:00 -10°C° 0.2 mm 2 m/S 585 mmHg 77%
    13:00 -10°C° 0.2 mm 2 m/S 585 mmHg 75%
    14:00 -10°C° 0.2 mm 2 m/S 585 mmHg 77%
    15:00 -12°C° 0.2 mm 2 m/S 585 mmHg 79%
    16:00 -12°C° 0.2 mm 2 m/S 585 mmHg 82%
    17:00 -13°C° 0.1 mm 2 m/S 586 mmHg 84%
    18:00 -11°C° 0.1 mm 1 m/S 586 mmHg 87%
    19:00 -12°C° 0.1 mm 1 m/S 586 mmHg 89%
    20:00 -13°C° 0 mm 1 m/S 586 mmHg 89%
    21:00 -13°C° 0 mm 1 m/S 586 mmHg 89%
    22:00 -14°C° 0 mm 1 m/S 586 mmHg 89%
    23:00 -14°C° 0 mm 1 m/S 586 mmHg 88%
    Mehr zeigen